SWA4164 KSAT-KLAX

Flight info

Callsign SWA4164
Flight time 3h 3m
Altitude 36000
Route ALISS7 ALISS DCT FST J86 FIGMO DCT KA15S DCT KA18Q DCT CULTS J104 WLVRN DCT ESTWD HLYWD1
Aircraft B737/M-SDE2E3FGHIRWXY/LB1

Departure

Time 2026-04-25 01:30
Airport San Antonio International Airport (KSAT)

Arrival

Time 2026-04-25 04:34
Airport Los Angeles International Airport (KLAX)
Time Latitude Longitude Altitude Speed Heading
2026-04-25 01:01 29.52945 -98.47241 794 ft 0 kts 166°
2026-04-25 01:20 29.52946 -98.47241 794 ft 2 kts 166°
2026-04-25 01:20 29.52969 -98.47252 794 ft 4 kts 136°
2026-04-25 01:20 29.52980 -98.47277 795 ft 4 kts 84°
2026-04-25 01:20 29.52972 -98.47297 795 ft 0 kts 41°
2026-04-25 01:25 29.52978 -98.47292 795 ft 5 kts 41°
2026-04-25 01:26 29.53016 -98.47253 795 ft 9 kts 40°
2026-04-25 01:26 29.53088 -98.47222 796 ft 14 kts 340°
2026-04-25 01:26 29.53165 -98.47316 798 ft 19 kts 312°
2026-04-25 01:26 29.53269 -98.47449 798 ft 25 kts 311°
2026-04-25 01:27 29.53386 -98.47600 799 ft 25 kts 311°
2026-04-25 01:27 29.53495 -98.47741 801 ft 23 kts 312°
2026-04-25 01:27 29.53600 -98.47876 804 ft 22 kts 311°
2026-04-25 01:28 29.53802 -98.48135 812 ft 22 kts 311°
2026-04-25 01:28 29.53906 -98.48268 813 ft 23 kts 312°
2026-04-25 01:28 29.54013 -98.48406 810 ft 24 kts 311°
2026-04-25 01:28 29.54121 -98.48546 813 ft 14 kts 312°
2026-04-25 01:29 29.54187 -98.48612 816 ft 12 kts 355°
2026-04-25 01:29 29.54252 -98.48562 815 ft 11 kts 43°
2026-04-25 01:29 29.54233 -98.48496 817 ft 10 kts 132°
2026-04-25 01:29 29.54068 -98.48285 815 ft 70 kts 131°
2026-04-25 01:30 29.53604 -98.47690 801 ft 131 kts 132°
2026-04-25 01:30 29.52897 -98.46784 965 ft 164 kts 133°
2026-04-25 01:30 29.52112 -98.45782 1584 ft 172 kts 133°
2026-04-25 01:30 29.51277 -98.44750 2043 ft 189 kts 135°
2026-04-25 01:31 29.50309 -98.43573 2309 ft 216 kts 135°
2026-04-25 01:31 29.49327 -98.42137 2501 ft 244 kts 118°
2026-04-25 01:31 29.48947 -98.40162 2889 ft 265 kts 86°
2026-04-25 01:31 29.49492 -98.38137 3612 ft 271 kts 58°
2026-04-25 01:32 29.50811 -98.36622 4421 ft 270 kts 31°
2026-04-25 01:32 29.52571 -98.35918 4798 ft 270 kts
2026-04-25 01:32 29.54417 -98.36207 4966 ft 271 kts 338°
2026-04-25 01:32 29.55990 -98.37385 5010 ft 273 kts 317°
2026-04-25 01:33 29.57315 -98.38955 5008 ft 274 kts 313°
2026-04-25 01:33 29.58594 -98.40588 4998 ft 275 kts 312°
2026-04-25 01:33 29.59870 -98.42232 4995 ft 275 kts 312°
2026-04-25 01:33 29.61148 -98.43872 4995 ft 275 kts 312°
2026-04-25 01:34 29.62429 -98.45506 5001 ft 275 kts 313°
2026-04-25 01:34 29.63705 -98.47124 5381 ft 274 kts 313°
2026-04-25 01:34 29.64986 -98.48744 6212 ft 273 kts 313°
2026-04-25 01:34 29.66262 -98.50353 7041 ft 274 kts 312°
2026-04-25 01:35 29.67559 -98.51987 7801 ft 278 kts 311°
2026-04-25 01:35 29.68856 -98.53620 8623 ft 282 kts 311°
2026-04-25 01:35 29.70183 -98.55291 9486 ft 285 kts 310°
2026-04-25 01:35 29.71527 -98.56985 10290 ft 288 kts 310°
2026-04-25 01:36 29.72901 -98.58716 11003 ft 295 kts 310°
2026-04-25 01:36 29.74290 -98.60465 11857 ft 296 kts 310°
2026-04-25 01:36 29.75682 -98.62218 12740 ft 297 kts 310°
2026-04-25 01:36 29.77086 -98.63988 13591 ft 299 kts 310°
2026-04-25 01:37 29.78486 -98.65771 14338 ft 302 kts 308°
2026-04-25 01:37 29.79843 -98.67643 15071 ft 306 kts 307°
2026-04-25 01:37 29.81191 -98.69565 15848 ft 309 kts 306°
2026-04-25 01:37 29.82544 -98.71501 16605 ft 312 kts 306°
2026-04-25 01:38 29.83917 -98.73459 17383 ft 316 kts 306°
2026-04-25 01:38 29.85317 -98.75444 18131 ft 320 kts 306°
2026-04-25 01:38 29.86714 -98.77422 18814 ft 322 kts 306°
2026-04-25 01:38 29.88128 -98.79422 19594 ft 322 kts 306°
2026-04-25 01:39 29.89543 -98.81421 20317 ft 323 kts 306°
2026-04-25 01:39 29.90968 -98.83432 20999 ft 325 kts 306°
2026-04-25 01:39 29.92405 -98.85459 21622 ft 328 kts 306°
2026-04-25 01:39 29.93849 -98.87497 21747 ft 328 kts 306°
2026-04-25 01:40 29.95290 -98.89529 21800 ft 327 kts 306°
2026-04-25 01:40 29.96736 -98.91572 21811 ft 330 kts 306°
2026-04-25 01:40 29.98187 -98.93625 21817 ft 330 kts 306°
2026-04-25 01:40 29.99636 -98.95673 21827 ft 329 kts 306°
2026-04-25 01:41 30.01085 -98.97724 21835 ft 329 kts 306°
2026-04-25 01:41 30.02529 -98.99769 21839 ft 329 kts 306°
2026-04-25 01:41 30.03971 -99.01812 21839 ft 329 kts 306°
2026-04-25 01:41 30.05415 -99.03860 21834 ft 329 kts 306°
2026-04-25 01:42 30.06367 -99.05210 21836 ft 328 kts 306°
2026-04-25 01:42 30.07809 -99.07256 21832 ft 329 kts 306°
2026-04-25 01:42 30.09253 -99.09305 21830 ft 329 kts 306°
2026-04-25 01:42 30.10694 -99.11351 21821 ft 329 kts 306°
2026-04-25 01:43 30.12125 -99.13409 21811 ft 328 kts 304°
2026-04-25 01:43 30.13525 -99.15487 21804 ft 328 kts 304°
2026-04-25 01:43 30.14919 -99.17575 21799 ft 328 kts 304°
2026-04-25 01:43 30.16306 -99.19656 21793 ft 327 kts 304°
2026-04-25 01:44 30.17698 -99.21739 21777 ft 327 kts 304°
2026-04-25 01:44 30.19089 -99.23821 21770 ft 327 kts 304°
2026-04-25 01:44 30.20478 -99.25896 21769 ft 326 kts 304°
2026-04-25 01:44 30.21868 -99.27973 21755 ft 326 kts 304°
2026-04-25 01:45 30.23254 -99.30044 21750 ft 326 kts 304°
2026-04-25 01:45 30.24644 -99.32122 21740 ft 326 kts 304°
2026-04-25 01:45 30.25856 -99.34312 21729 ft 323 kts 295°
2026-04-25 01:45 30.26759 -99.36676 21731 ft 321 kts 287°
2026-04-25 01:46 30.27352 -99.39158 21733 ft 320 kts 283°
2026-04-25 01:46 30.27870 -99.41675 21725 ft 321 kts 282°
2026-04-25 01:46 30.28376 -99.44223 22002 ft 329 kts 282°
2026-04-25 01:46 30.28901 -99.46881 22088 ft 348 kts 282°
2026-04-25 01:47 30.29456 -99.49673 22221 ft 364 kts 282°
2026-04-25 01:47 30.30039 -99.52589 22336 ft 379 kts 282°
2026-04-25 01:47 30.30647 -99.55613 22437 ft 392 kts 282°
2026-04-25 01:47 30.31268 -99.58689 22509 ft 404 kts 282°
2026-04-25 01:48 30.31915 -99.61887 22593 ft 413 kts 282°
2026-04-25 01:48 30.32578 -99.65161 22689 ft 421 kts 282°
2026-04-25 01:48 30.33249 -99.68481 22860 ft 426 kts 282°
2026-04-25 01:48 30.33925 -99.71825 23137 ft 427 kts 282°
2026-04-25 01:49 30.34602 -99.75177 23419 ft 428 kts 282°
2026-04-25 01:49 30.35281 -99.78544 23671 ft 429 kts 282°
2026-04-25 01:49 30.35959 -99.81911 23926 ft 429 kts 282°
2026-04-25 01:49 30.36636 -99.85279 24178 ft 430 kts 282°
2026-04-25 01:50 30.37312 -99.88650 24415 ft 431 kts 282°
2026-04-25 01:50 30.37989 -99.92031 24637 ft 431 kts 282°
2026-04-25 01:50 30.38667 -99.95420 24849 ft 432 kts 282°
2026-04-25 01:50 30.39344 -99.98812 25055 ft 433 kts 282°
2026-04-25 01:51 30.40021 -100.02207 25274 ft 434 kts 282°
2026-04-25 01:51 30.40700 -100.05615 25484 ft 434 kts 282°
2026-04-25 01:51 30.41379 -100.09028 25706 ft 435 kts 282°
2026-04-25 01:51 30.42057 -100.12443 25896 ft 436 kts 282°
2026-04-25 01:52 30.42737 -100.15871 26072 ft 436 kts 282°
2026-04-25 01:52 30.43415 -100.19295 26238 ft 437 kts 282°
2026-04-25 01:52 30.44095 -100.22733 26397 ft 437 kts 282°
2026-04-25 01:52 30.44772 -100.26163 26597 ft 437 kts 282°
2026-04-25 01:53 30.45448 -100.29594 26862 ft 435 kts 282°
2026-04-25 01:53 30.46118 -100.32998 27144 ft 433 kts 282°
2026-04-25 01:53 30.46788 -100.36403 27425 ft 432 kts 282°
2026-04-25 01:53 30.47454 -100.39796 27703 ft 431 kts 282°
2026-04-25 01:54 30.48117 -100.43182 27990 ft 429 kts 282°
2026-04-25 01:54 30.48769 -100.46512 28329 ft 427 kts 282°
2026-04-25 01:54 30.49423 -100.49856 28806 ft 423 kts 282°
2026-04-25 01:54 30.50068 -100.53159 29346 ft 418 kts 282°
2026-04-25 01:55 30.50706 -100.56434 29896 ft 414 kts 282°
2026-04-25 01:55 30.51337 -100.59675 30359 ft 411 kts 282°
2026-04-25 01:55 30.51962 -100.62895 30845 ft 407 kts 282°
2026-04-25 01:55 30.52582 -100.66086 31395 ft 401 kts 282°
2026-04-25 01:56 30.53186 -100.69203 32106 ft 392 kts 282°
2026-04-25 01:56 30.53778 -100.72262 32812 ft 384 kts 282°
2026-04-25 01:56 30.54357 -100.75254 33460 ft 378 kts 282°
2026-04-25 01:56 30.54929 -100.78217 33947 ft 375 kts 282°
2026-04-25 01:57 30.56064 -100.84115 34544 ft 374 kts 281°
2026-04-25 01:57 30.56630 -100.87059 34872 ft 373 kts 281°
2026-04-25 01:57 30.57190 -100.89979 35262 ft 370 kts 281°
2026-04-25 01:58 30.57748 -100.92886 35575 ft 368 kts 281°
2026-04-25 01:58 30.58302 -100.95781 35783 ft 368 kts 281°
2026-04-25 01:58 30.58862 -100.98710 35777 ft 374 kts 281°
2026-04-25 01:59 30.59999 -101.04671 35820 ft 381 kts 281°
2026-04-25 01:59 30.61145 -101.10683 35830 ft 381 kts 281°
2026-04-25 02:00 30.62286 -101.16689 35843 ft 381 kts 281°
2026-04-25 02:00 30.63416 -101.22658 35844 ft 381 kts 281°
2026-04-25 02:01 30.64551 -101.28662 35837 ft 380 kts 281°
2026-04-25 02:01 30.65681 -101.34660 35829 ft 380 kts 281°
2026-04-25 02:02 30.66807 -101.40654 35815 ft 379 kts 281°
2026-04-25 02:02 30.67929 -101.46641 35796 ft 379 kts 281°
2026-04-25 02:03 30.69046 -101.52618 35783 ft 379 kts 281°
2026-04-25 02:03 30.70161 -101.58602 35756 ft 379 kts 281°
2026-04-25 02:04 30.71273 -101.64585 35748 ft 378 kts 281°
2026-04-25 02:04 30.72380 -101.70556 35743 ft 378 kts 281°
2026-04-25 02:05 30.73482 -101.76520 35751 ft 378 kts 281°
2026-04-25 02:05 30.74581 -101.82487 35754 ft 377 kts 281°
2026-04-25 02:06 30.75677 -101.88450 35748 ft 377 kts 281°
2026-04-25 02:06 30.76769 -101.94404 35735 ft 376 kts 281°
2026-04-25 02:07 30.77849 -102.00312 35734 ft 375 kts 281°
2026-04-25 02:07 30.78929 -102.06234 35739 ft 374 kts 281°
2026-04-25 02:08 30.80005 -102.12151 35738 ft 374 kts 281°
2026-04-25 02:08 30.81076 -102.18061 35731 ft 373 kts 281°
2026-04-25 02:09 30.82144 -102.23966 35737 ft 373 kts 281°
2026-04-25 02:09 30.83208 -102.29864 35748 ft 372 kts 281°
2026-04-25 02:10 30.84269 -102.35765 35742 ft 372 kts 281°
2026-04-25 02:10 30.85329 -102.41672 35739 ft 373 kts 280°
2026-04-25 02:11 30.86387 -102.47586 35729 ft 374 kts 280°
2026-04-25 02:11 30.87442 -102.53504 35749 ft 374 kts 280°
2026-04-25 02:12 30.88497 -102.59436 35758 ft 374 kts 280°
2026-04-25 02:12 30.89551 -102.65377 35782 ft 375 kts 280°
2026-04-25 02:13 30.90605 -102.71330 35804 ft 376 kts 280°
2026-04-25 02:13 30.91656 -102.77294 35828 ft 376 kts 280°
2026-04-25 02:14 30.92707 -102.83266 35835 ft 377 kts 280°
2026-04-25 02:14 30.93756 -102.89243 35842 ft 377 kts 280°
2026-04-25 02:15 30.94796 -102.95189 35844 ft 377 kts 280°
2026-04-25 02:15 30.96135 -103.01099 35854 ft 378 kts 285°
2026-04-25 02:16 30.97761 -103.06932 35817 ft 379 kts 285°
2026-04-25 02:16 30.99393 -103.12774 35787 ft 379 kts 285°
2026-04-25 02:17 31.01010 -103.18617 35764 ft 379 kts 285°
2026-04-25 02:17 31.02618 -103.24463 35747 ft 379 kts 285°
2026-04-25 02:18 31.04219 -103.30305 35727 ft 378 kts 285°
2026-04-25 02:18 31.05817 -103.36151 35730 ft 378 kts 285°
2026-04-25 02:19 31.07413 -103.42003 35740 ft 378 kts 285°
2026-04-25 02:19 31.09006 -103.47855 35744 ft 379 kts 285°
2026-04-25 02:20 31.10596 -103.53707 35758 ft 379 kts 285°
2026-04-25 02:20 31.12186 -103.59571 35759 ft 379 kts 285°
2026-04-25 02:21 31.13773 -103.65436 35762 ft 379 kts 285°
2026-04-25 02:21 31.15361 -103.71313 35763 ft 379 kts 285°
2026-04-25 02:22 31.16944 -103.77190 35756 ft 380 kts 285°
2026-04-25 02:22 31.18528 -103.83075 35752 ft 380 kts 285°
2026-04-25 02:23 31.20109 -103.88965 35751 ft 380 kts 285°
2026-04-25 02:23 31.21679 -103.94827 35754 ft 381 kts 285°
2026-04-25 02:24 31.23258 -104.00733 35761 ft 381 kts 285°
2026-04-25 02:24 31.24847 -104.06687 35765 ft 381 kts 285°
2026-04-25 02:25 31.26412 -104.12567 35766 ft 382 kts 285°
2026-04-25 02:25 31.27987 -104.18493 35771 ft 382 kts 285°
2026-04-25 02:26 31.29557 -104.24414 35774 ft 381 kts 285°
2026-04-25 02:26 31.31125 -104.30341 35775 ft 381 kts 285°
2026-04-25 02:27 31.32689 -104.36262 35771 ft 381 kts 285°
2026-04-25 02:27 31.34247 -104.42176 35771 ft 380 kts 285°
2026-04-25 02:28 31.35801 -104.48085 35763 ft 380 kts 285°
2026-04-25 02:28 31.37349 -104.53981 35770 ft 379 kts 285°
2026-04-25 02:29 31.38890 -104.59865 35764 ft 378 kts 285°
2026-04-25 02:29 31.40425 -104.65741 35766 ft 377 kts 285°
2026-04-25 02:30 31.41960 -104.71624 35764 ft 377 kts 285°
2026-04-25 02:30 31.43488 -104.77496 35761 ft 377 kts 285°
2026-04-25 02:31 31.44755 -104.82372 35759 ft 376 kts 284°
2026-04-25 02:31 31.46274 -104.88229 35699 ft 374 kts 285°
2026-04-25 02:32 31.47778 -104.94039 35764 ft 372 kts 284°
2026-04-25 02:32 31.49275 -104.99843 35742 ft 373 kts 284°
2026-04-25 02:33 31.50779 -105.05681 35749 ft 375 kts 284°
2026-04-25 02:33 31.52288 -105.11550 35749 ft 377 kts 284°
2026-04-25 02:34 31.53801 -105.17449 35746 ft 379 kts 284°
2026-04-25 02:34 31.55317 -105.23368 35743 ft 380 kts 284°
2026-04-25 02:35 31.56825 -105.29270 35735 ft 380 kts 284°
2026-04-25 02:35 31.58338 -105.35200 35728 ft 377 kts 284°
2026-04-25 02:36 31.60043 -105.40956 35737 ft 373 kts 289°
2026-04-25 02:36 31.62067 -105.46542 35733 ft 372 kts 290°
2026-04-25 02:37 31.64095 -105.52108 35738 ft 370 kts 290°
2026-04-25 02:37 31.66107 -105.57675 35736 ft 370 kts 289°
2026-04-25 02:38 31.68105 -105.63234 35735 ft 369 kts 289°
2026-04-25 02:38 31.70094 -105.68786 35731 ft 370 kts 289°
2026-04-25 02:39 31.72085 -105.74355 35729 ft 370 kts 289°
2026-04-25 02:39 31.74074 -105.79931 35731 ft 370 kts 289°
2026-04-25 02:40 31.76062 -105.85511 35734 ft 371 kts 289°
2026-04-25 02:40 31.78053 -105.91107 35721 ft 371 kts 289°
2026-04-25 02:41 31.80039 -105.96699 35729 ft 371 kts 289°
2026-04-25 02:41 31.82020 -106.02289 35752 ft 370 kts 289°
2026-04-25 02:42 31.83985 -106.07834 35782 ft 370 kts 289°
2026-04-25 02:42 31.85956 -106.13415 35812 ft 369 kts 289°
2026-04-25 02:43 31.87924 -106.18995 35834 ft 369 kts 289°
2026-04-25 02:43 31.89888 -106.24574 35860 ft 368 kts 289°
2026-04-25 02:44 31.91845 -106.30141 35872 ft 368 kts 289°
2026-04-25 02:44 31.93798 -106.35704 35880 ft 367 kts 289°
2026-04-25 02:45 31.95746 -106.41265 35867 ft 367 kts 289°
2026-04-25 02:45 31.97691 -106.46823 35839 ft 367 kts 289°
2026-04-25 02:46 31.99627 -106.52367 35826 ft 366 kts 289°
2026-04-25 02:46 32.01563 -106.57921 35865 ft 367 kts 289°
2026-04-25 02:47 32.03487 -106.63449 35859 ft 368 kts 289°
2026-04-25 02:47 32.05428 -106.69035 35859 ft 369 kts 289°
2026-04-25 02:48 32.07371 -106.74637 35844 ft 369 kts 289°
2026-04-25 02:48 32.09314 -106.80246 35829 ft 370 kts 289°
2026-04-25 02:49 32.11259 -106.85873 35857 ft 371 kts 289°
2026-04-25 02:49 32.13205 -106.91512 35874 ft 371 kts 289°
2026-04-25 02:50 32.15152 -106.97161 35888 ft 372 kts 289°
2026-04-25 02:50 32.17098 -107.02820 35885 ft 372 kts 289°
2026-04-25 02:51 32.19040 -107.08476 35867 ft 372 kts 289°
2026-04-25 02:51 32.20981 -107.14139 35855 ft 372 kts 289°
2026-04-25 02:52 32.22922 -107.19812 35823 ft 372 kts 289°
2026-04-25 02:52 32.24860 -107.25484 35787 ft 372 kts 289°
2026-04-25 02:53 32.26782 -107.31120 35760 ft 372 kts 289°
2026-04-25 02:53 32.28713 -107.36795 35780 ft 372 kts 289°
2026-04-25 02:54 32.30641 -107.42466 35795 ft 372 kts 289°
2026-04-25 02:54 32.32569 -107.48149 35838 ft 372 kts 289°
2026-04-25 02:55 32.34491 -107.53826 35861 ft 372 kts 288°
2026-04-25 02:55 32.36412 -107.59509 35878 ft 372 kts 288°
2026-04-25 02:56 32.38328 -107.65188 35887 ft 372 kts 288°
2026-04-25 02:56 32.40245 -107.70878 35874 ft 372 kts 288°
2026-04-25 02:57 32.42158 -107.76569 35863 ft 373 kts 288°
2026-04-25 02:57 32.44075 -107.82279 35854 ft 373 kts 288°
2026-04-25 02:58 32.45986 -107.87983 35825 ft 373 kts 288°
2026-04-25 02:58 32.47897 -107.93697 35856 ft 373 kts 288°
2026-04-25 02:59 32.49803 -107.99411 35900 ft 373 kts 288°
2026-04-25 02:59 32.51414 -108.05229 35935 ft 371 kts 284°
2026-04-25 03:00 32.52903 -108.11084 35961 ft 371 kts 284°
2026-04-25 03:00 32.54391 -108.16930 35979 ft 371 kts 284°
2026-04-25 03:01 32.55888 -108.22776 35977 ft 370 kts 284°
2026-04-25 03:01 32.57384 -108.28608 35953 ft 370 kts 284°
2026-04-25 03:02 32.58881 -108.34449 35924 ft 370 kts 284°
2026-04-25 03:02 32.60375 -108.40292 35885 ft 370 kts 284°
2026-04-25 03:03 32.61857 -108.46095 35852 ft 369 kts 285°
2026-04-25 03:03 32.63342 -108.51923 35815 ft 369 kts 285°
2026-04-25 03:04 32.64827 -108.57761 35789 ft 370 kts 284°
2026-04-25 03:04 32.66306 -108.63595 35773 ft 368 kts 284°
2026-04-25 03:05 32.68501 -108.72268 35764 ft 364 kts 284°
2026-04-25 03:05 32.69950 -108.78012 35749 ft 363 kts 284°
2026-04-25 03:06 32.71391 -108.83735 35762 ft 361 kts 284°
2026-04-25 03:06 32.72827 -108.89452 35749 ft 361 kts 284°
2026-04-25 03:07 32.74260 -108.95170 35757 ft 361 kts 284°
2026-04-25 03:07 32.75693 -109.00897 35750 ft 362 kts 283°
2026-04-25 03:08 32.77127 -109.06643 35752 ft 363 kts 283°
2026-04-25 03:08 32.78562 -109.12404 35751 ft 364 kts 283°
2026-04-25 03:09 32.79999 -109.18185 35749 ft 365 kts 283°
2026-04-25 03:09 32.81433 -109.23967 35746 ft 365 kts 283°
2026-04-25 03:10 32.82863 -109.29744 35780 ft 364 kts 283°
2026-04-25 03:10 32.84283 -109.35493 35799 ft 365 kts 283°
2026-04-25 03:11 32.85713 -109.41299 35819 ft 366 kts 283°
2026-04-25 03:11 32.87142 -109.47112 35840 ft 366 kts 283°
2026-04-25 03:12 32.88570 -109.52929 35857 ft 366 kts 283°
2026-04-25 03:12 32.89991 -109.58734 35861 ft 365 kts 283°
2026-04-25 03:13 32.91406 -109.64527 35861 ft 364 kts 283°
2026-04-25 03:13 32.92817 -109.70318 35862 ft 364 kts 283°
2026-04-25 03:14 32.94224 -109.76106 35849 ft 364 kts 283°
2026-04-25 03:14 32.95629 -109.81896 35834 ft 364 kts 283°
2026-04-25 03:15 32.97029 -109.87683 35802 ft 364 kts 283°
2026-04-25 03:15 32.98426 -109.93466 35781 ft 363 kts 283°
2026-04-25 03:16 32.99818 -109.99240 35771 ft 362 kts 282°
2026-04-25 03:16 33.00970 -110.05061 35771 ft 361 kts 279°
2026-04-25 03:17 33.02006 -110.10902 35768 ft 360 kts 279°
2026-04-25 03:17 33.03039 -110.16734 35768 ft 359 kts 279°
2026-04-25 03:18 33.04082 -110.22582 35777 ft 363 kts 279°
2026-04-25 03:18 33.05147 -110.28547 35772 ft 370 kts 279°
2026-04-25 03:19 33.06071 -110.33713 35774 ft 370 kts 279°
2026-04-25 03:19 33.06961 -110.38701 35769 ft 370 kts 279°
2026-04-25 03:20 33.08027 -110.44693 35759 ft 370 kts 279°
2026-04-25 03:20 33.09090 -110.50682 35765 ft 369 kts 279°
2026-04-25 03:21 33.10148 -110.56664 35762 ft 368 kts 279°
2026-04-25 03:21 33.11203 -110.62643 35789 ft 368 kts 279°
2026-04-25 03:22 33.12253 -110.68617 35749 ft 368 kts 279°
2026-04-25 03:22 33.13299 -110.74581 35767 ft 367 kts 279°
2026-04-25 03:23 33.14338 -110.80524 35767 ft 366 kts 279°
2026-04-25 03:23 33.15373 -110.86460 35770 ft 365 kts 279°
2026-04-25 03:24 33.16403 -110.92390 35768 ft 365 kts 279°
2026-04-25 03:24 33.17431 -110.98324 35765 ft 366 kts 279°
2026-04-25 03:25 33.18457 -111.04264 35769 ft 365 kts 279°
2026-04-25 03:25 33.19434 -111.09936 35767 ft 365 kts 279°
2026-04-25 03:26 33.20455 -111.15878 35763 ft 365 kts 279°
2026-04-25 03:26 33.21472 -111.21818 35757 ft 365 kts 279°
2026-04-25 03:27 33.22486 -111.27761 35768 ft 365 kts 279°
2026-04-25 03:27 33.23496 -111.33699 35775 ft 365 kts 278°
2026-04-25 03:28 33.24504 -111.39639 35787 ft 365 kts 278°
2026-04-25 03:28 33.25509 -111.45576 35803 ft 364 kts 278°
2026-04-25 03:29 33.26509 -111.51509 35815 ft 364 kts 278°
2026-04-25 03:29 33.27507 -111.57443 35823 ft 364 kts 278°
2026-04-25 03:30 33.28501 -111.63373 35824 ft 364 kts 278°
2026-04-25 03:30 33.29490 -111.69292 35824 ft 363 kts 278°
2026-04-25 03:31 33.30477 -111.75218 35816 ft 363 kts 278°
2026-04-25 03:31 33.31460 -111.81133 35816 ft 363 kts 278°
2026-04-25 03:32 33.32439 -111.87050 35815 ft 363 kts 278°
2026-04-25 03:32 33.33416 -111.92965 35809 ft 363 kts 278°
2026-04-25 03:33 33.34389 -111.98879 35788 ft 362 kts 278°
2026-04-25 03:33 33.35353 -112.04755 35787 ft 362 kts 278°
2026-04-25 03:34 33.36321 -112.10677 35784 ft 363 kts 278°
2026-04-25 03:34 33.37287 -112.16602 35775 ft 363 kts 278°
2026-04-25 03:35 33.38251 -112.22535 35787 ft 363 kts 278°
2026-04-25 03:35 33.39212 -112.28467 35796 ft 363 kts 278°
2026-04-25 03:36 33.40170 -112.34396 35794 ft 363 kts 278°
2026-04-25 03:36 33.41125 -112.40329 35797 ft 363 kts 278°
2026-04-25 03:37 33.42077 -112.46264 35795 ft 363 kts 277°
2026-04-25 03:37 33.43026 -112.52199 35792 ft 363 kts 277°
2026-04-25 03:38 33.43973 -112.58134 35815 ft 363 kts 277°
2026-04-25 03:38 33.44916 -112.64067 35815 ft 363 kts 277°
2026-04-25 03:39 33.45857 -112.70011 35817 ft 363 kts 277°
2026-04-25 03:39 33.46797 -112.75963 35818 ft 363 kts 277°
2026-04-25 03:40 33.47733 -112.81908 35816 ft 363 kts 277°
2026-04-25 03:40 33.48661 -112.87824 35798 ft 363 kts 277°
2026-04-25 03:41 33.49592 -112.93776 35786 ft 363 kts 277°
2026-04-25 03:41 33.50521 -112.99736 35775 ft 363 kts 277°
2026-04-25 03:42 33.51439 -113.05646 35763 ft 363 kts 277°
2026-04-25 03:42 33.52359 -113.11592 35754 ft 363 kts 277°
2026-04-25 03:43 33.53278 -113.17540 35760 ft 363 kts 277°
2026-04-25 03:43 33.54192 -113.23485 35792 ft 363 kts 277°
2026-04-25 03:44 33.55104 -113.29434 35819 ft 362 kts 277°
2026-04-25 03:44 33.56013 -113.35380 35846 ft 362 kts 277°
2026-04-25 03:45 33.56918 -113.41318 35867 ft 362 kts 277°
2026-04-25 03:45 33.57983 -113.47227 35889 ft 366 kts 285°
2026-04-25 03:46 33.60149 -113.52811 35897 ft 373 kts 292°
2026-04-25 03:46 33.63324 -113.57865 35911 ft 384 kts 302°
2026-04-25 03:47 33.66914 -113.62640 35904 ft 385 kts 303°
2026-04-25 03:47 33.70498 -113.67432 35881 ft 385 kts 302°
2026-04-25 03:48 33.74042 -113.72220 35845 ft 386 kts 302°
2026-04-25 03:48 33.77611 -113.77055 35817 ft 386 kts 302°
2026-04-25 03:49 33.80614 -113.82260 35787 ft 374 kts 291°
2026-04-25 03:49 33.82634 -113.87956 35759 ft 370 kts 286°
2026-04-25 03:50 33.84546 -113.93697 35749 ft 370 kts 286°
2026-04-25 03:50 33.86472 -113.99432 35737 ft 370 kts 286°
2026-04-25 03:51 33.88404 -114.05166 35737 ft 369 kts 286°
2026-04-25 03:51 33.90326 -114.10902 35741 ft 369 kts 285°
2026-04-25 03:52 33.91544 -114.16826 35732 ft 364 kts 277°
2026-04-25 03:52 33.92505 -114.22810 35733 ft 364 kts 277°
2026-04-25 03:53 33.93480 -114.28792 35728 ft 364 kts 277°
2026-04-25 03:53 33.94479 -114.34781 35728 ft 365 kts 277°
2026-04-25 03:54 33.95488 -114.40778 35721 ft 365 kts 277°
2026-04-25 03:54 33.96497 -114.46777 35726 ft 365 kts 278°
2026-04-25 03:55 33.97503 -114.52773 35723 ft 365 kts 278°
2026-04-25 03:55 33.98506 -114.58772 35724 ft 365 kts 278°
2026-04-25 03:56 33.99506 -114.64770 35723 ft 365 kts 277°
2026-04-25 03:56 34.00503 -114.70775 35728 ft 366 kts 277°
2026-04-25 03:57 34.01499 -114.76789 35727 ft 366 kts 277°
2026-04-25 03:57 34.02322 -114.81769 35713 ft 359 kts 277°
2026-04-25 03:58 34.03285 -114.87611 35730 ft 354 kts 277°
2026-04-25 03:58 34.04240 -114.93435 35722 ft 353 kts 277°
2026-04-25 03:59 34.05189 -114.99232 35726 ft 352 kts 277°
2026-04-25 03:59 34.06135 -115.05033 35717 ft 352 kts 277°
2026-04-25 04:00 34.07078 -115.10822 35731 ft 352 kts 277°
2026-04-25 04:00 34.08019 -115.16614 35736 ft 352 kts 277°
2026-04-25 04:01 34.08957 -115.22410 35755 ft 352 kts 277°
2026-04-25 04:01 34.09888 -115.28183 35746 ft 353 kts 277°
2026-04-25 04:02 34.10826 -115.34016 35741 ft 354 kts 277°
2026-04-25 04:02 34.11762 -115.39850 35743 ft 355 kts 277°
2026-04-25 04:03 34.12698 -115.45704 35746 ft 355 kts 277°
2026-04-25 04:03 34.13633 -115.51572 35751 ft 356 kts 277°
2026-04-25 04:04 34.14565 -115.57442 35730 ft 358 kts 276°
2026-04-25 04:04 34.15495 -115.63310 35750 ft 356 kts 277°
2026-04-25 04:05 34.16158 -115.69184 35769 ft 349 kts 270°
2026-04-25 04:05 34.16112 -115.72104 35322 ft 350 kts 263°
2026-04-25 04:05 34.15820 -115.74996 35001 ft 347 kts 263°
2026-04-25 04:06 34.15531 -115.77882 34636 ft 344 kts 263°
2026-04-25 04:06 34.15251 -115.80737 34274 ft 341 kts 263°
2026-04-25 04:06 34.14974 -115.83582 33940 ft 339 kts 263°
2026-04-25 04:06 34.14700 -115.86406 33560 ft 338 kts 263°
2026-04-25 04:07 34.14427 -115.89216 33176 ft 337 kts 263°
2026-04-25 04:07 34.14155 -115.92022 32812 ft 336 kts 263°
2026-04-25 04:07 34.13882 -115.94819 32459 ft 335 kts 263°
2026-04-25 04:07 34.13609 -115.97611 32082 ft 334 kts 263°
2026-04-25 04:08 34.13336 -116.00398 31794 ft 334 kts 263°
2026-04-25 04:08 34.13062 -116.03197 31426 ft 336 kts 263°
2026-04-25 04:08 34.12789 -116.05981 31089 ft 340 kts 263°
2026-04-25 04:08 34.12508 -116.08837 30728 ft 343 kts 263°
2026-04-25 04:09 34.12227 -116.11698 30359 ft 343 kts 263°
2026-04-25 04:09 34.11944 -116.14559 30010 ft 343 kts 263°
2026-04-25 04:09 34.11662 -116.17419 29592 ft 344 kts 263°
2026-04-25 04:09 34.11378 -116.20284 29206 ft 343 kts 263°
2026-04-25 04:10 34.11095 -116.23145 28818 ft 343 kts 263°
2026-04-25 04:10 34.10811 -116.26000 28452 ft 342 kts 263°
2026-04-25 04:10 34.10527 -116.28841 28079 ft 340 kts 263°
2026-04-25 04:10 34.10239 -116.31668 27712 ft 339 kts 263°
2026-04-25 04:11 34.09641 -116.37265 26983 ft 333 kts 263°
2026-04-25 04:11 34.09343 -116.40026 26597 ft 330 kts 263°
2026-04-25 04:11 34.09049 -116.42763 26251 ft 328 kts 263°
2026-04-25 04:12 34.08756 -116.45482 25919 ft 326 kts 263°
2026-04-25 04:12 34.08465 -116.48188 25581 ft 324 kts 263°
2026-04-25 04:12 34.08175 -116.50885 25239 ft 324 kts 263°
2026-04-25 04:12 34.07885 -116.53572 24902 ft 323 kts 263°
2026-04-25 04:13 34.07595 -116.56256 24567 ft 322 kts 263°
2026-04-25 04:13 34.07305 -116.58931 24235 ft 321 kts 263°
2026-04-25 04:13 34.07039 -116.61630 23903 ft 333 kts 264°
2026-04-25 04:13 34.06777 -116.64494 23531 ft 349 kts 264°
2026-04-25 04:14 34.06512 -116.67405 23133 ft 348 kts 265°
2026-04-25 04:14 34.06251 -116.70272 22728 ft 348 kts 264°
2026-04-25 04:14 34.05984 -116.73172 22352 ft 347 kts 264°
2026-04-25 04:14 34.05714 -116.76067 21974 ft 346 kts 264°
2026-04-25 04:15 34.05445 -116.78953 21627 ft 346 kts 264°
2026-04-25 04:15 34.05175 -116.81830 21264 ft 345 kts 264°
2026-04-25 04:15 34.04905 -116.84707 20932 ft 345 kts 264°
2026-04-25 04:15 34.04633 -116.87580 20574 ft 344 kts 264°
2026-04-25 04:16 34.04341 -116.90443 20232 ft 343 kts 262°
2026-04-25 04:16 34.03973 -116.93283 19893 ft 342 kts 261°
2026-04-25 04:16 34.03593 -116.96073 19543 ft 340 kts 261°
2026-04-25 04:16 34.03218 -116.98882 19205 ft 339 kts 262°
2026-04-25 04:17 34.02845 -117.01723 18854 ft 338 kts 262°
2026-04-25 04:17 34.02488 -117.04510 18492 ft 336 kts 262°
2026-04-25 04:17 34.02162 -117.07249 18148 ft 332 kts 262°
2026-04-25 04:17 34.01842 -117.09991 17759 ft 328 kts 262°
2026-04-25 04:18 34.01526 -117.12699 17398 ft 324 kts 262°
2026-04-25 04:18 34.01211 -117.15373 17086 ft 320 kts 262°
2026-04-25 04:18 34.00897 -117.18023 16750 ft 318 kts 262°
2026-04-25 04:18 34.00582 -117.20665 16412 ft 316 kts 262°
2026-04-25 04:19 34.00269 -117.23284 16093 ft 315 kts 262°
2026-04-25 04:19 33.99954 -117.25911 15749 ft 317 kts 262°
2026-04-25 04:19 33.99642 -117.28512 15436 ft 319 kts 262°
2026-04-25 04:19 33.99324 -117.31165 15085 ft 320 kts 262°
2026-04-25 04:20 33.99010 -117.33823 14739 ft 321 kts 262°
2026-04-25 04:20 33.98698 -117.36484 14398 ft 321 kts 262°
2026-04-25 04:20 33.98386 -117.39147 14055 ft 321 kts 262°
2026-04-25 04:20 33.98073 -117.41804 13709 ft 320 kts 262°
2026-04-25 04:21 33.97761 -117.44445 13340 ft 317 kts 262°
2026-04-25 04:21 33.97453 -117.47057 12972 ft 312 kts 263°
2026-04-25 04:21 33.97434 -117.49623 12623 ft 304 kts 278°
2026-04-25 04:21 33.97923 -117.52066 12328 ft 298 kts 284°
2026-04-25 04:22 33.98505 -117.54455 12030 ft 297 kts 285°
2026-04-25 04:22 33.99099 -117.56844 11718 ft 298 kts 285°
2026-04-25 04:22 33.99686 -117.59245 11409 ft 300 kts 285°
2026-04-25 04:22 34.00270 -117.61675 11094 ft 303 kts 284°
2026-04-25 04:23 34.00848 -117.64114 10773 ft 303 kts 284°
2026-04-25 04:23 34.01420 -117.66536 10441 ft 296 kts 284°
2026-04-25 04:23 34.01970 -117.68901 10125 ft 289 kts 282°
2026-04-25 04:23 34.02100 -117.71244 9942 ft 271 kts 263°
2026-04-25 04:24 34.01879 -117.73456 9530 ft 267 kts 263°
2026-04-25 04:24 34.01655 -117.75656 9195 ft 264 kts 263°
2026-04-25 04:24 34.01435 -117.77839 8883 ft 261 kts 263°
2026-04-25 04:24 34.01218 -117.80018 8566 ft 262 kts 263°
2026-04-25 04:25 34.01003 -117.82205 8276 ft 263 kts 263°
2026-04-25 04:25 34.00789 -117.84397 7975 ft 264 kts 263°
2026-04-25 04:25 34.00574 -117.86595 7674 ft 264 kts 263°
2026-04-25 04:25 34.00358 -117.88790 7383 ft 264 kts 263°
2026-04-25 04:26 34.00151 -117.90987 7090 ft 264 kts 264°
2026-04-25 04:26 33.99983 -117.93187 6784 ft 263 kts 264°
2026-04-25 04:26 33.99795 -117.95384 6498 ft 263 kts 263°
2026-04-25 04:26 33.99585 -117.97567 6200 ft 262 kts 263°
2026-04-25 04:27 33.99367 -117.99720 5896 ft 261 kts 263°
2026-04-25 04:27 33.99146 -118.01873 5563 ft 256 kts 263°
2026-04-25 04:27 33.98930 -118.03971 5229 ft 250 kts 263°
2026-04-25 04:27 33.98729 -118.05929 4917 ft 244 kts 263°
2026-04-25 04:28 33.98522 -118.07941 4585 ft 239 kts 263°
2026-04-25 04:28 33.98320 -118.09912 4255 ft 235 kts 262°
2026-04-25 04:28 33.98119 -118.11867 4045 ft 233 kts 263°
2026-04-25 04:28 33.97919 -118.13815 4010 ft 235 kts 263°
2026-04-25 04:29 33.97724 -118.15764 3989 ft 235 kts 263°
2026-04-25 04:29 33.97538 -118.17740 3758 ft 239 kts 263°
2026-04-25 04:29 33.97337 -118.19722 3462 ft 235 kts 263°
2026-04-25 04:29 33.97141 -118.21604 3155 ft 217 kts 263°
2026-04-25 04:30 33.96960 -118.23328 2882 ft 200 kts 263°
2026-04-25 04:30 33.96792 -118.24932 2624 ft 186 kts 263°
2026-04-25 04:30 33.96636 -118.26427 2383 ft 175 kts 263°
2026-04-25 04:30 33.96487 -118.27862 2153 ft 171 kts 263°
2026-04-25 04:31 33.96344 -118.29238 1931 ft 160 kts 263°
2026-04-25 04:31 33.96212 -118.30514 1726 ft 149 kts 263°
2026-04-25 04:31 33.96087 -118.31719 1529 ft 142 kts 263°
2026-04-25 04:31 33.95967 -118.32878 1365 ft 140 kts 263°
2026-04-25 04:32 33.95848 -118.34022 1178 ft 134 kts 263°
2026-04-25 04:32 33.95734 -118.35128 1008 ft 132 kts 263°
2026-04-25 04:32 33.95619 -118.36234 831 ft 136 kts 263°
2026-04-25 04:32 33.95504 -118.37350 633 ft 133 kts 262°
2026-04-25 04:33 33.95392 -118.38452 452 ft 131 kts 261°
2026-04-25 04:33 33.95280 -118.39551 265 ft 133 kts 261°
2026-04-25 04:33 33.95166 -118.40649 111 ft 130 kts 261°
2026-04-25 04:33 33.95066 -118.41589 107 ft 92 kts 263°
2026-04-25 04:34 33.95008 -118.42174 107 ft 46 kts 263°
2026-04-25 04:34 33.94968 -118.42456 106 ft 30 kts 251°
2026-04-25 04:34 33.94870 -118.42654 102 ft 24 kts 227°
2026-04-25 04:34 33.94779 -118.42744 106 ft 14 kts 211°
2026-04-25 04:35 33.94685 -118.42781 104 ft 14 kts 181°
2026-04-25 04:35 33.94634 -118.42707 99 ft 14 kts 84°
2026-04-25 04:35 33.94648 -118.42596 99 ft 13 kts 85°
2026-04-25 04:35 33.94657 -118.42489 98 ft 13 kts 82°
2026-04-25 04:36 33.94668 -118.42371 98 ft 16 kts 83°
2026-04-25 04:36 33.94686 -118.42217 99 ft 21 kts 84°
2026-04-25 04:36 33.94704 -118.42032 99 ft 23 kts 82°
2026-04-25 04:36 33.94722 -118.41844 97 ft 22 kts 83°
2026-04-25 04:37 33.94742 -118.41662 97 ft 22 kts 82°
2026-04-25 04:37 33.94759 -118.41480 98 ft 21 kts 81°
2026-04-25 04:37 33.94791 -118.41309 97 ft 21 kts 83°
2026-04-25 04:37 33.94808 -118.41142 99 ft 21 kts 82°
2026-04-25 04:38 33.94826 -118.40962 99 ft 22 kts 83°
2026-04-25 04:38 33.94845 -118.40779 99 ft 22 kts 83°
2026-04-25 04:38 33.94863 -118.40598 99 ft 21 kts 84°
2026-04-25 04:38 33.94881 -118.40422 99 ft 21 kts 83°
2026-04-25 04:39 33.94899 -118.40254 99 ft 20 kts 84°
2026-04-25 04:39 33.94911 -118.40110 98 ft 12 kts 100°
2026-04-25 04:39 33.94854 -118.40064 97 ft 10 kts 137°
2026-04-25 04:39 33.94812 -118.40003 95 ft 10 kts 172°
2026-04-25 04:40 33.94740 -118.40011 94 ft 11 kts 183°
2026-04-25 04:40 33.94671 -118.40014 94 ft 8 kts 197°
2026-04-25 04:40 33.94653 -118.40053 94 ft 3 kts 270°
2026-04-25 04:40 33.94654 -118.40063 94 ft 1 kts 273°
2026-04-25 04:41 33.94654 -118.40065 94 ft 0 kts 273°